Regional Weather Roundup
Issued by NWS Jackson, KY

Home | Current Version | Previous Version | Text Only | Print | Product List | Glossary On
Versions: 1 2 3 4 5 6 7 8 9 10 11 12 13 14 15 16 17 18 19 20 21 22 23 24 25 26 27 28 29 30 31 32 33 34 35 36 37 38 39 40 41 42 43 44 45 46 47 48 49 50
000
ASUS43 KJKL 230419
RWRJKL

EAST KENTUCKY HOURLY WEATHER ROUNDUP
NATIONAL WEATHER SERVICE JACKSON KY
1200 AM EDT TUE SEP 23 2014

NOTE: "FAIR" INDICATES FEW OR NO CLOUDS BELOW 12,000 FEET WITH
NO SIGNIFICANT WEATHER AND/OR OBSTRUCTIONS TO VISIBILITY.

* THESE REPORTS ARE NOT UNDER NWS QUALITY CONTROL AND MAY NOT
  REPORT WEATHER SUCH AS PRECIPITATION AND FOG.

KYZ079-080-083-085-087-088-110-112-115-119-120-230500
...EASTERN KENTUCKY...

CITY           SKY/WX    TMP DP  RH WIND       PRES   REMARKS
JACKSON        CLEAR     54  45  71 CALM      30.26S
LONDON         CLEAR     52  47  83 CALM      30.26S
SOMERSET*      CLEAR     50  46  87 CALM      30.27S
MONTICELLO*    CLEAR     46  44  93 CALM      30.27S
MIDDLESBORO*   CLEAR     50  49  97 CALM      30.26S
HARLAN APT*    MOCLDY    50  50 100 MISG      30.26S
BLACK MTN*       N/A     45  45 100 N8          N/A
PIKEVILLE APT* CLEAR     52  48  87 S3        30.26S
BIG SANDY*     PTCLDY    51  50  95 CALM      30.26S
MOREHEAD APT*  CLEAR     52  46  82 NE3       30.29S
ASHLAND*       CLEAR     50  43  76 CALM      30.27R
$$

KYZ035-036-041-042-044-050-067-078-099-230500
...CENTRAL KENTUCKY...

CITY           SKY/WX    TMP DP  RH WIND       PRES   REMARKS
MT STERLING*   CLEAR     46  45  93 CALM      30.29S
FLEMING/MASON* CLEAR     50  43  76 E5        30.29R
DANVILLE*      CLEAR     46  43  87 CALM      30.27S
RICHMOND*      CLEAR     52  45  76 CALM      30.27R
LEXINGTON      CLEAR     52  44  74 NE5       30.27R
FRANKFORT      CLEAR     48  44  86 CALM      30.27R
$$

KYZ091>093-OHZ055-061-077-WVZ005-015-034-035-042-230500
...SOUTHERN OHIO/WEST VIRGINIA...

CITY           SKY/WX    TMP DP  RH WIND       PRES   REMARKS
COVINGTON      CLEAR     53  43  68 N7        30.28R
COLUMBUS       CLEAR     51  42  71 CALM      30.27R
DAYTON         CLEAR     50  41  71 CALM      30.29S
WILMINGTON     CLEAR     42  40  92 CALM      30.28R
HUNTINGTON     CLEAR     52  44  74 NE6       30.26R
CHARLESTON     CLEAR     49  49 100 CALM      30.27R
PINEVILLE*     CLEAR     47  47 100 MISG      30.32S FOG
BECKLEY        CLEAR     46  43  89 CALM      30.28R
BLUEFIELD      CLEAR     49  43  80 CALM      30.28S
$$

VAZ002-007-008-TNZ017-027-036-066-071-230500
...SOUTHWEST VIRGINIA/EAST TENNESSEE...

CITY           SKY/WX    TMP DP  RH WIND       PRES   REMARKS
WISE*          CLEAR     50  48  93 CALM      30.28S
JONESVILLE*    CLEAR     48  48 100 CALM      30.28R
ABINGDON*      CLEAR     52  49  87 E3        30.26R
BRISTOL        CLEAR     51  46  83 CALM      30.25R
KNOXVILLE      CLEAR     58  50  75 N7        30.20S
OAK RIDGE      CLEAR     56  49  77 E3        30.23S
CROSSVILLE     CLEAR     54  45  71 NE7       30.24S
NASHVILLE      CLEAR     57  48  72 N8        30.23S
$$

...KEY TO REMARKS...
VSB - VISIBILITY IN MILES
WCI - WIND CHILL INDEX
HX  - HEAT INDEX

$$


USA.gov is the U.S. government's official web portal to all federal, state and local government web resources and services.